* Astronomy

Members Login
Username 
 
Password 
    Remember Me  
Post Info TOPIC: Asteroid 2012 BZ34


L

Posts: 131433
Date:
Asteroid 2012 BZ34
Permalink  
 


Orbital elements:
2012 BZ34                                                Earth MOID = 0.2699 AU
Epoch 2012 Mar. 14.0 TT = JDT 2456000.5                 MPC
M  52.56513              (2000.0)            P               Q
n   0.43960191     Peri.  291.61918     +0.40720578     -0.82698971
a   1.7130222      Node   128.22743     +0.90707683     +0.41578775
e   0.3682031      Incl.   29.56874     -0.10674771     +0.37842907
P   2.24           H   22.5           G   0.15           U   7

MPEC 2012 - B63



__________________
Page 1 of 1  sorted by
 
Quick Reply

Please log in to post quick replies.



Create your own FREE Forum
Report Abuse
Powered by ActiveBoard